Satellite: AUBIESAT Catalog number: 37854 Epoch time: 12291.90236505 Element set: 0318 Inclination: 101.7069 deg RA of node: 028.4251 deg Eccentricity: 0.0242955 Arg of perigee: 000.0121 deg Mean anomaly: 000.1022 deg Mean motion: 14.81565998 rev/day Decay rate: 5.681e-05 rev/day^2 Epoch rev: 05255 Checksum: 267
Satellite: HRBE Catalog number: 37855 Epoch time: 12292.53781805 Element set: 312 Inclination: 101.7076 deg RA of node: 029.2583 deg Eccentricity: 0.0244754 Arg of perigee: 358.2760 deg Mean anomaly: 001.7566 deg Mean motion: 14.81373070 rev/day Decay rate: 4.917e-05 rev/day^2 Epoch rev: 5264 Checksum: 300
Satellite: RS-39 Catalog number: 38051 Epoch time: 12292.88731905 Element set: 807 Inclination: 051.6350 deg RA of node: 289.4996 deg Eccentricity: 0.0013896 Arg of perigee: 117.5597 deg Mean anomaly: 316.3476 deg Mean motion: 15.26522601 rev/day Decay rate: 1.5437e-04 rev/day^2 Epoch rev: 4085 Checksum: 335
Satellite: E-STAR Catalog number: 38079 Epoch time: 12292.67804988 Element set: 580 Inclination: 069.4817 deg RA of node: 031.7313 deg Eccentricity: 0.0700618 Arg of perigee: 091.0267 deg Mean anomaly: 277.1166 deg Mean motion: 14.24271054 rev/day Decay rate: 4.3974e-04 rev/day^2 Epoch rev: 3510 Checksum: 310
Satellite: GOLIAT Catalog number: 38085 Epoch time: 12292.69237480 Element set: 547 Inclination: 069.4816 deg RA of node: 032.4373 deg Eccentricity: 0.0706742 Arg of perigee: 091.4736 deg Mean anomaly: 276.7389 deg Mean motion: 14.23036819 rev/day Decay rate: 4.2268e-04 rev/day^2 Epoch rev: 3508 Checksum: 331
Satellite: HORYU-2 Catalog number: 38340 Epoch time: 12292.83728826 Element set: 197 Inclination: 098.1868 deg RA of node: 232.9216 deg Eccentricity: 0.0011885 Arg of perigee: 301.7550 deg Mean anomaly: 058.2594 deg Mean motion: 14.70283572 rev/day Decay rate: 2.085e-05 rev/day^2 Epoch rev: 2264 Checksum: 316
Satellite: RS-40 Catalog number: 38736 Epoch time: 12291.60566656 Element set: 0085 Inclination: 082.4767 deg RA of node: 306.3828 deg Eccentricity: 0.0019692 Arg of perigee: 134.3444 deg Mean anomaly: 225.9261 deg Mean motion: 12.42646793 rev/day Decay rate: 1.0e-07 rev/day^2 Epoch rev: 01011 Checksum: 299
Satellite: PROITERES Catalog number: 38756 Epoch time: 12292.73499540 Element set: 146 Inclination: 098.2820 deg RA of node: 359.0544 deg Eccentricity: 0.0013217 Arg of perigee: 150.3032 deg Mean anomaly: 209.8929 deg Mean motion: 14.73921250 rev/day Decay rate: 9.32e-06 rev/day^2 Epoch rev: 582 Checksum: 295
Satellite: AENEAS Catalog number: 38760 Epoch time: 12292.59224759 Element set: 0044 Inclination: 064.6712 deg RA of node: 294.3785 deg Eccentricity: 0.0218746 Arg of perigee: 279.7740 deg Mean anomaly: 196.9387 deg Mean motion: 14.79209769 rev/day Decay rate: 7.974e-05 rev/day^2 Epoch rev: 00511 Checksum: 358
Satellite: CSSWE-D Catalog number: 38761 Epoch time: 12292.59396971 Element set: 0039 Inclination: 064.6728 deg RA of node: 294.3543 deg Eccentricity: 0.0219595 Arg of perigee: 279.7647 deg Mean anomaly: 220.2297 deg Mean motion: 14.79250717 rev/day Decay rate: 5.180e-05 rev/day^2 Epoch rev: 00511 Checksum: 335
Satellite: CXBN-E Catalog number: 38762 Epoch time: 12292.52621990 Element set: 0038 Inclination: 064.6742 deg RA of node: 294.5535 deg Eccentricity: 0.0219472 Arg of perigee: 279.5853 deg Mean anomaly: 225.3092 deg Mean motion: 14.79313262 rev/day Decay rate: 5.711e-05 rev/day^2 Epoch rev: 00510 Checksum: 303
Satellite: OBJECT F Catalog number: 38763 Epoch time: 12292.58915884 Element set: 0036 Inclination: 064.6728 deg RA of node: 294.3579 deg Eccentricity: 0.0219860 Arg of perigee: 279.8294 deg Mean anomaly: 202.0698 deg Mean motion: 14.79303387 rev/day Decay rate: 4.849e-05 rev/day^2 Epoch rev: 00495 Checksum: 362
Satellite: CINEMA-G Catalog number: 38764 Epoch time: 12292.52560757 Element set: 0036 Inclination: 064.6712 deg RA of node: 294.5467 deg Eccentricity: 0.0219593 Arg of perigee: 279.8509 deg Mean anomaly: 224.9420 deg Mean motion: 14.79320852 rev/day Decay rate: 5.180e-05 rev/day^2 Epoch rev: 00510 Checksum: 315
Satellite: CP5 Catalog number: 38765 Epoch time: 12292.58733009 Element set: 0037 Inclination: 064.6732 deg RA of node: 294.3416 deg Eccentricity: 0.0218581 Arg of perigee: 279.7702 deg Mean anomaly: 197.9660 deg Mean motion: 14.79394567 rev/day Decay rate: 7.628e-05 rev/day^2 Epoch rev: 00511 Checksum: 342
Satellite: RAIKO Catalog number: 38852 Epoch time: 12292.86260360 Element set: 13 Inclination: 051.6467 deg RA of node: 226.8659 deg Eccentricity: 0.0018444 Arg of perigee: 171.1212 deg Mean anomaly: 189.0108 deg Mean motion: 15.52123295 rev/day Decay rate: 4.1198e-04 rev/day^2 Epoch rev: 214 Checksum: 279
Satellite: FITSAT 1 Catalog number: 38853 Epoch time: 12292.86186995 Element set: 15 Inclination: 051.6526 deg RA of node: 226.8697 deg Eccentricity: 0.0014395 Arg of perigee: 179.4079 deg Mean anomaly: 180.6934 deg Mean motion: 15.52297689 rev/day Decay rate: 4.9816e-04 rev/day^2 Epoch rev: 219 Checksum: 358
Satellite: TechEdSat Catalog number: 38854 Epoch time: 12292.92449247 Element set: 15 Inclination: 051.6473 deg RA of node: 226.5338 deg Eccentricity: 0.0015030 Arg of perigee: 181.5682 deg Mean anomaly: 178.5289 deg Mean motion: 15.52669418 rev/day Decay rate: 6.2912e-04 rev/day^2 Epoch rev: 220 Checksum: 304
Satellite: F 1 Catalog number: 38855 Epoch time: 12292.86048178 Element set: 16 Inclination: 051.6488 deg RA of node: 226.8593 deg Eccentricity: 0.0015441 Arg of perigee: 181.9586 deg Mean anomaly: 178.1351 deg Mean motion: 15.52602573 rev/day Decay rate: 6.1081e-04 rev/day^2 Epoch rev: 208 Checksum: 310
Satellite: WeWish Catalog number: 38856 Epoch time: 12292.85810721 Element set: 19 Inclination: 051.6468 deg RA of node: 226.8346 deg Eccentricity: 0.0016425 Arg of perigee: 170.6382 deg Mean anomaly: 189.4931 deg Mean motion: 15.53175866 rev/day Decay rate: 8.6786e-04 rev/day^2 Epoch rev: 208 Checksum: 328
/EX
participants (1)
-
Ray Hoad